SAS935 EKCH-KSFO

Flight info

Callsign SAS935
Flight time N/A
Altitude 38000
Route GOLGA DCT RETKA DCT BURIX DCT 64N000E/M084F380 68N010W 71N020W 74N040W 74N060W DCT DAPAK/N0497F400 DCT 73N080W 7130N09000W 69N100W 65N108W 60N114W 55N118W/N0493F410 49N120W DCT KS21G DCT EAT DCT POWEL DCT RBL DCT MRRLO BDEGA4
Aircraft A359/H-SABDE1E3FGHIJ1J2J3J4J5M1P2RWXYZ/LB2D1

Departure

Time 2026-04-22 20:23
Airport Copenhagen Kastrup Airport (EKCH)

Arrival

Time N/A
Airport San Francisco International Airport (KSFO)
Time Latitude Longitude Altitude Speed Heading
2026-04-22 19:56 55.62432 12.65072 30 ft 0 kts 269°
2026-04-22 20:13 55.62434 12.65113 28 ft 4 kts 256°
2026-04-22 20:13 55.62443 12.65157 28 ft 4 kts 236°
2026-04-22 20:13 55.62461 12.65190 28 ft 4 kts 204°
2026-04-22 20:14 55.62478 12.65197 27 ft 1 kts 178°
2026-04-22 20:14 55.62480 12.65197 27 ft 0 kts 178°
2026-04-22 20:17 55.62455 12.65198 26 ft 4 kts 178°
2026-04-22 20:17 55.62427 12.65200 28 ft 4 kts 178°
2026-04-22 20:17 55.62373 12.65202 30 ft 11 kts 179°
2026-04-22 20:17 55.62275 12.65198 30 ft 17 kts 180°
2026-04-22 20:18 55.62160 12.65121 30 ft 18 kts 213°
2026-04-22 20:18 55.62056 12.65000 30 ft 18 kts 213°
2026-04-22 20:18 55.61946 12.64873 30 ft 19 kts 213°
2026-04-22 20:18 55.61831 12.64743 30 ft 19 kts 213°
2026-04-22 20:19 55.61719 12.64613 30 ft 20 kts 213°
2026-04-22 20:19 55.61604 12.64480 30 ft 20 kts 213°
2026-04-22 20:19 55.61486 12.64346 30 ft 20 kts 213°
2026-04-22 20:19 55.61366 12.64208 30 ft 21 kts 213°
2026-04-22 20:20 55.61243 12.64068 30 ft 21 kts 213°
2026-04-22 20:20 55.61119 12.63925 30 ft 22 kts 213°
2026-04-22 20:20 55.60992 12.63780 30 ft 22 kts 213°
2026-04-22 20:20 55.60865 12.63633 30 ft 22 kts 212°
2026-04-22 20:21 55.60738 12.63486 30 ft 22 kts 213°
2026-04-22 20:21 55.60614 12.63329 30 ft 22 kts 218°
2026-04-22 20:21 55.60514 12.63172 30 ft 14 kts 222°
2026-04-22 20:21 55.60430 12.63129 30 ft 13 kts 158°
2026-04-22 20:22 55.60363 12.63242 31 ft 13 kts 128°
2026-04-22 20:22 55.60358 12.63368 32 ft 12 kts 53°
2026-04-22 20:22 55.60498 12.63593 30 ft 55 kts 41°
2026-04-22 20:22 55.60950 12.64291 31 ft 115 kts 41°
2026-04-22 20:23 55.61690 12.65432 35 ft 165 kts 45°
2026-04-22 20:23 55.62527 12.66772 628 ft 160 kts 37°
2026-04-22 20:23 55.63351 12.68054 1274 ft 158 kts 35°
2026-04-22 20:23 55.64222 12.69367 1519 ft 172 kts 32°
2026-04-22 20:24 55.65330 12.70306 1702 ft 184 kts
2026-04-22 20:24 55.66648 12.70358 1965 ft 196 kts 353°
2026-04-22 20:24 55.68069 12.70180 2204 ft 215 kts 353°
2026-04-22 20:24 55.69630 12.69978 2493 ft 232 kts 354°
2026-04-22 20:25 55.71264 12.69791 3076 ft 236 kts 354°
2026-04-22 20:25 55.72907 12.69615 3740 ft 236 kts 354°
2026-04-22 20:25 55.74537 12.69443 4383 ft 237 kts 354°
2026-04-22 20:25 55.76215 12.69266 5017 ft 240 kts 354°
2026-04-22 20:26 55.77885 12.69092 5602 ft 242 kts 354°
2026-04-22 20:26 55.79571 12.68909 6193 ft 244 kts 354°
2026-04-22 20:26 55.81220 12.68301 6783 ft 245 kts 338°
2026-04-22 20:26 55.82640 12.66618 7332 ft 249 kts 315°
2026-04-22 20:27 55.83575 12.63987 7877 ft 256 kts 298°
2026-04-22 20:27 55.84257 12.61028 8420 ft 260 kts 297°
2026-04-22 20:27 55.85166 12.58258 8940 ft 259 kts 312°
2026-04-22 20:27 55.86403 12.55948 9517 ft 259 kts 320°
2026-04-22 20:28 55.87745 12.53862 10097 ft 260 kts 323°
2026-04-22 20:28 55.89097 12.51960 10472 ft 267 kts 324°
2026-04-22 20:28 55.90713 12.49804 10695 ft 282 kts 325°
2026-04-22 20:28 55.92312 12.47699 10902 ft 296 kts 325°
2026-04-22 20:29 55.94026 12.45425 11106 ft 310 kts 324°
2026-04-22 20:29 55.95784 12.43064 11316 ft 323 kts 324°
2026-04-22 20:29 55.97583 12.40621 11517 ft 334 kts 324°
2026-04-22 20:29 55.99474 12.38031 11832 ft 342 kts 324°
2026-04-22 20:30 56.01344 12.35457 12243 ft 346 kts 324°
2026-04-22 20:30 56.03259 12.32816 12663 ft 349 kts 324°
2026-04-22 20:30 56.05193 12.30147 13081 ft 353 kts 324°
2026-04-22 20:30 56.07147 12.27449 13502 ft 357 kts 324°
2026-04-22 20:31 56.09120 12.24723 13907 ft 360 kts 324°
2026-04-22 20:31 56.11113 12.21967 14274 ft 363 kts 324°
2026-04-22 20:31 56.13121 12.19187 14665 ft 366 kts 324°
2026-04-22 20:31 56.15138 12.16391 15063 ft 368 kts 324°
2026-04-22 20:32 56.17196 12.13533 15462 ft 370 kts 324°
2026-04-22 20:32 56.19213 12.10730 15856 ft 373 kts 324°
2026-04-22 20:32 56.21269 12.07867 16234 ft 375 kts 324°
2026-04-22 20:32 56.23345 12.04974 16556 ft 380 kts 324°
2026-04-22 20:33 56.25437 12.02053 16928 ft 382 kts 324°
2026-04-22 20:33 56.27542 11.99111 17346 ft 384 kts 324°
2026-04-22 20:33 56.29656 11.96151 17730 ft 386 kts 324°
2026-04-22 20:33 56.31813 11.93126 18104 ft 389 kts 324°
2026-04-22 20:34 56.33923 11.90164 18469 ft 391 kts 324°
2026-04-22 20:34 56.36077 11.87136 18797 ft 394 kts 324°
2026-04-22 20:34 56.38244 11.84083 19096 ft 397 kts 324°
2026-04-22 20:34 56.40426 11.81006 19408 ft 399 kts 324°
2026-04-22 20:35 56.42621 11.77905 19719 ft 402 kts 324°
2026-04-22 20:35 56.44827 11.74785 20010 ft 404 kts 325°
2026-04-22 20:35 56.47046 11.71641 20309 ft 406 kts 325°
2026-04-22 20:35 56.49277 11.68476 20598 ft 409 kts 325°
2026-04-22 20:36 56.51523 11.65284 20895 ft 411 kts 325°
2026-04-22 20:36 56.53778 11.62076 21176 ft 414 kts 324°
2026-04-22 20:36 56.56053 11.58834 21386 ft 418 kts 324°
2026-04-22 20:36 56.58343 11.55564 21681 ft 419 kts 324°
2026-04-22 20:37 56.60636 11.52282 21997 ft 421 kts 324°
2026-04-22 20:37 56.62940 11.48982 22273 ft 423 kts 324°
2026-04-22 20:37 56.65254 11.45661 22546 ft 425 kts 324°
2026-04-22 20:37 56.67580 11.42319 22811 ft 427 kts 324°
2026-04-22 20:38 56.69918 11.38954 23080 ft 429 kts 324°
2026-04-22 20:38 56.72267 11.35568 23358 ft 431 kts 324°
2026-04-22 20:38 56.74622 11.32167 23620 ft 434 kts 324°
2026-04-22 20:38 56.76992 11.28739 23871 ft 436 kts 324°
2026-04-22 20:39 56.79369 11.25295 24101 ft 438 kts 324°
2026-04-22 20:39 56.81759 11.21826 24345 ft 439 kts 324°
2026-04-22 20:39 56.84151 11.18348 24579 ft 441 kts 324°
2026-04-22 20:39 56.86551 11.14853 24819 ft 442 kts 324°
2026-04-22 20:40 56.88962 11.11337 25054 ft 444 kts 324°
2026-04-22 20:40 56.91371 11.07816 25357 ft 443 kts 324°
2026-04-22 20:40 56.93781 11.04288 25609 ft 445 kts 324°
2026-04-22 20:40 56.96200 11.00741 25829 ft 447 kts 324°
2026-04-22 20:41 56.98634 10.97166 26071 ft 449 kts 324°
2026-04-22 20:41 57.01072 10.93580 26305 ft 450 kts 324°
2026-04-22 20:41 57.03519 10.89975 26538 ft 452 kts 324°
2026-04-22 20:41 57.05973 10.86352 26791 ft 454 kts 324°
2026-04-22 20:42 57.08439 10.82704 27046 ft 455 kts 324°
2026-04-22 20:42 57.10911 10.79043 27277 ft 457 kts 324°
2026-04-22 20:42 57.13391 10.75363 27516 ft 459 kts 324°
2026-04-22 20:42 57.15880 10.71662 27774 ft 461 kts 324°
2026-04-22 20:43 57.18381 10.67939 27935 ft 464 kts 324°
2026-04-22 20:43 57.20082 10.65401 28107 ft 465 kts 324°
2026-04-22 20:43 57.22599 10.61640 28373 ft 466 kts 324°
2026-04-22 20:43 57.25125 10.57858 28627 ft 468 kts 324°
2026-04-22 20:44 57.27654 10.54066 28874 ft 470 kts 324°
2026-04-22 20:44 57.30198 10.50245 29123 ft 472 kts 324°
2026-04-22 20:44 57.32748 10.46408 29373 ft 474 kts 324°
2026-04-22 20:44 57.35311 10.42543 29641 ft 476 kts 324°
2026-04-22 20:45 57.37883 10.38659 29876 ft 478 kts 324°
2026-04-22 20:45 57.40455 10.34767 30141 ft 480 kts 324°
2026-04-22 20:45 57.43049 10.30835 30396 ft 482 kts 324°
2026-04-22 20:45 57.45649 10.26884 30585 ft 484 kts 324°
2026-04-22 20:46 57.50883 10.18913 30919 ft 489 kts 324°
2026-04-22 20:46 57.53517 10.14889 31104 ft 491 kts 324°
2026-04-22 20:46 57.56160 10.10842 31310 ft 493 kts 324°
2026-04-22 20:47 57.58811 10.06774 31504 ft 495 kts 324°
2026-04-22 20:47 57.61469 10.02689 31684 ft 496 kts 324°
2026-04-22 20:47 57.64139 9.98578 31877 ft 498 kts 324°
2026-04-22 20:47 57.66807 9.94459 32142 ft 497 kts 324°
2026-04-22 20:48 57.69472 9.90339 32399 ft 497 kts 324°
2026-04-22 20:48 57.72137 9.86209 32641 ft 498 kts 324°
2026-04-22 20:48 57.74799 9.82077 32887 ft 498 kts 324°
2026-04-22 20:48 57.77464 9.77933 33132 ft 498 kts 324°
2026-04-22 20:49 57.80122 9.73791 33340 ft 498 kts 323°
2026-04-22 20:49 57.82796 9.69618 33472 ft 501 kts 323°
2026-04-22 20:49 57.85468 9.65438 33756 ft 499 kts 323°